When you browse on this site, cookies collect data to enhance your experience and personalize the content and advertising you see.
Visit our Privacy Policy to learn more. By continuing to use the site, you agree to this use of cookies and data.
  • In Österreich
  • Länderverzeichnis
  • Für 7 Tage
  • Wassertemperatur
  • Wetterkarte
  • News
  • Widgets
  • user-avatar
    Anmelden

    Stündliche Wetter Zasillya

    Heute, 23 August, Freitag

    Zeit Temperatur Niederschläge Wind Luftdruck Luftfeuchtigkeit
    00:00 +27°C° 0 mm 6 m/S 758 mmHg 53%
    01:00 +27°C° 0 mm 6 m/S 759 mmHg 56%
    02:00 +26°C° 0 mm 6 m/S 759 mmHg 59%
    03:00 +26°C° 0 mm 6 m/S 759 mmHg 62%
    04:00 +24°C° 0 mm 6 m/S 759 mmHg 65%
    05:00 +23°C° 0 mm 6 m/S 759 mmHg 68%
    06:00 +24°C° 0.2 mm 6 m/S 759 mmHg 65%
    07:00 +26°C° 0.2 mm 6 m/S 759 mmHg 62%
    08:00 +27°C° 0.2 mm 6 m/S 760 mmHg 59%
    09:00 +29°C° 0 mm 6 m/S 760 mmHg 53%
    10:00 +32°C° 0 mm 6 m/S 760 mmHg 47%
    11:00 +34°C° 0 mm 5 m/S 760 mmHg 41%
    12:00 +35°C° 0 mm 5 m/S 759 mmHg 38%
    13:00 +36°C° 0 mm 5 m/S 759 mmHg 35%
    14:00 +36°C° 0 mm 5 m/S 759 mmHg 32%
    15:00 +36°C° 0 mm 5 m/S 759 mmHg 32%
    16:00 +35°C° 0 mm 6 m/S 759 mmHg 33%
    17:00 +35°C° 0 mm 6 m/S 758 mmHg 34%
    18:00 +33°C° 0 mm 5 m/S 759 mmHg 38%
    19:00 +30°C° 0 mm 5 m/S 759 mmHg 42%
    20:00 +29°C° 0 mm 4 m/S 759 mmHg 46%
    21:00 +28°C° 0 mm 4 m/S 760 mmHg 50%
    22:00 +27°C° 0 mm 5 m/S 760 mmHg 53%
    23:00 +27°C° 0 mm 5 m/S 760 mmHg 56%

    Morgen, 24 August, Samstag

    Zeit Temperatur Niederschläge Wind Luftdruck Luftfeuchtigkeit
    00:00 +26°C° 0 mm 5 m/S 760 mmHg 60%
    01:00 +25°C° 0 mm 5 m/S 760 mmHg 64%
    02:00 +25°C° 0 mm 5 m/S 760 mmHg 68%
    03:00 +23°C° 0 mm 5 m/S 760 mmHg 72%
    04:00 +22°C° 0 mm 5 m/S 760 mmHg 77%
    05:00 +22°C° 0 mm 5 m/S 760 mmHg 82%
    06:00 +23°C° 0 mm 5 m/S 760 mmHg 76%
    07:00 +25°C° 0 mm 5 m/S 760 mmHg 71%
    08:00 +27°C° 0 mm 5 m/S 760 mmHg 65%
    09:00 +28°C° 0 mm 5 m/S 760 mmHg 57%
    10:00 +30°C° 0 mm 5 m/S 760 mmHg 49%
    11:00 +33°C° 0 mm 5 m/S 760 mmHg 42%
    12:00 +34°C° 0 mm 5 m/S 760 mmHg 39%
    13:00 +35°C° 0 mm 5 m/S 760 mmHg 35%
    14:00 +35°C° 0 mm 5 m/S 759 mmHg 32%
    15:00 +35°C° 0 mm 5 m/S 759 mmHg 33%
    16:00 +35°C° 0 mm 5 m/S 759 mmHg 34%
    17:00 +34°C° 0 mm 5 m/S 758 mmHg 35%
    18:00 +33°C° 0 mm 5 m/S 759 mmHg 40%
    19:00 +30°C° 0 mm 5 m/S 759 mmHg 44%
    20:00 +29°C° 0 mm 5 m/S 759 mmHg 48%
    21:00 +28°C° 0 mm 5 m/S 759 mmHg 51%
    22:00 +27°C° 0 mm 5 m/S 759 mmHg 53%
    23:00 +27°C° 0 mm 5 m/S 760 mmHg 56%

    übermorgen, 25 August, Sonntag

    Zeit Temperatur Niederschläge Wind Luftdruck Luftfeuchtigkeit
    00:00 +26°C° 0 mm 5 m/S 760 mmHg 58%
    01:00 +25°C° 0 mm 4 m/S 759 mmHg 60%
    02:00 +25°C° 0 mm 4 m/S 759 mmHg 63%
    03:00 +23°C° 0 mm 4 m/S 759 mmHg 66%
    04:00 +23°C° 0 mm 4 m/S 760 mmHg 68%
    05:00 +22°C° 0 mm 4 m/S 760 mmHg 71%
    06:00 +23°C° 0 mm 4 m/S 760 mmHg 66%
    07:00 +26°C° 0 mm 5 m/S 760 mmHg 62%
    08:00 +27°C° 0 mm 5 m/S 760 mmHg 57%
    09:00 +29°C° 0 mm 5 m/S 760 mmHg 51%
    10:00 +30°C° 0 mm 6 m/S 760 mmHg 45%
    11:00 +33°C° 0 mm 6 m/S 760 mmHg 39%
    12:00 +33°C° 0 mm 6 m/S 760 mmHg 36%
    13:00 +34°C° 0 mm 6 m/S 759 mmHg 34%
    14:00 +34°C° 0 mm 6 m/S 759 mmHg 32%
    15:00 +34°C° 0 mm 6 m/S 759 mmHg 32%
    16:00 +33°C° 0 mm 6 m/S 759 mmHg 32%
    17:00 +33°C° 0 mm 6 m/S 759 mmHg 33%
    18:00 +30°C° 0 mm 5 m/S 759 mmHg 35%
    19:00 +28°C° 0 mm 5 m/S 759 mmHg 37%
    20:00 +27°C° 0 mm 4 m/S 759 mmHg 39%
    21:00 +26°C° 0 mm 4 m/S 759 mmHg 40%
    22:00 +25°C° 0 mm 4 m/S 760 mmHg 42%
    23:00 +23°C° 0 mm 4 m/S 760 mmHg 43%

    26 August, Montag

    Zeit Temperatur Niederschläge Wind Luftdruck Luftfeuchtigkeit
    00:00 +22°C° 0 mm 4 m/S 760 mmHg 43%
    01:00 +22°C° 0 mm 4 m/S 760 mmHg 44%
    02:00 +21°C° 0 mm 5 m/S 759 mmHg 45%
    03:00 +21°C° 0 mm 5 m/S 760 mmHg 47%
    04:00 +20°C° 0 mm 5 m/S 760 mmHg 49%
    05:00 +20°C° 0 mm 5 m/S 760 mmHg 52%
    06:00 +21°C° 0 mm 5 m/S 760 mmHg 49%
    07:00 +23°C° 0 mm 5 m/S 760 mmHg 47%
    08:00 +24°C° 0 mm 6 m/S 760 mmHg 44%
    09:00 +27°C° 0 mm 6 m/S 760 mmHg 41%
    10:00 +29°C° 0 mm 6 m/S 760 mmHg 37%
    11:00 +32°C° 0 mm 6 m/S 760 mmHg 34%
    12:00 +33°C° 0 mm 5 m/S 760 mmHg 32%
    13:00 +34°C° 0 mm 5 m/S 760 mmHg 30%
    14:00 +35°C° 0 mm 4 m/S 759 mmHg 28%
    15:00 +34°C° 0 mm 4 m/S 759 mmHg 29%
    16:00 +34°C° 0 mm 4 m/S 759 mmHg 30%
    17:00 +34°C° 0 mm 4 m/S 759 mmHg 30%
    18:00 +32°C° 0 mm 4 m/S 759 mmHg 34%
    19:00 +29°C° 0 mm 3 m/S 759 mmHg 38%
    20:00 +27°C° 0 mm 3 m/S 759 mmHg 41%
    21:00 +26°C° 0 mm 3 m/S 759 mmHg 43%
    22:00 +25°C° 0 mm 3 m/S 759 mmHg 45%
    23:00 +24°C° 0 mm 3 m/S 760 mmHg 48%

    27 August, Dienstag

    Zeit Temperatur Niederschläge Wind Luftdruck Luftfeuchtigkeit
    00:00 +24°C° 0 mm 3 m/S 760 mmHg 52%
    01:00 +22°C° 0 mm 3 m/S 760 mmHg 57%
    02:00 +22°C° 0 mm 3 m/S 760 mmHg 62%
    03:00 +21°C° 0 mm 3 m/S 760 mmHg 64%
    04:00 +21°C° 0 mm 3 m/S 760 mmHg 66%
    05:00 +20°C° 0 mm 3 m/S 759 mmHg 68%
    06:00 +22°C° 0 mm 3 m/S 760 mmHg 60%
    07:00 +25°C° 0 mm 3 m/S 760 mmHg 53%
    08:00 +27°C° 0 mm 4 m/S 760 mmHg 45%
    09:00 +28°C° 0 mm 4 m/S 760 mmHg 41%
    10:00 +30°C° 0 mm 4 m/S 759 mmHg 36%
    11:00 +32°C° 0 mm 4 m/S 759 mmHg 31%
    12:00 +33°C° 0 mm 4 m/S 759 mmHg 29%
    13:00 +33°C° 0 mm 4 m/S 759 mmHg 27%
    14:00 +34°C° 0 mm 4 m/S 758 mmHg 25%
    15:00 +33°C° 0 mm 4 m/S 758 mmHg 25%
    16:00 +33°C° 0 mm 4 m/S 758 mmHg 26%
    17:00 +33°C° 0 mm 4 m/S 758 mmHg 26%
    18:00 +30°C° 0 mm 4 m/S 758 mmHg 30%
    19:00 +28°C° 0 mm 4 m/S 758 mmHg 34%
    20:00 +26°C° 0 mm 4 m/S 758 mmHg 38%
    21:00 +25°C° 0 mm 4 m/S 758 mmHg 39%
    22:00 +24°C° 0 mm 3 m/S 759 mmHg 40%
    23:00 +22°C° 0 mm 3 m/S 759 mmHg 41%

    28 August, Mittwoch

    Zeit Temperatur Niederschläge Wind Luftdruck Luftfeuchtigkeit
    00:00 +22°C° 0 mm 3 m/S 759 mmHg 43%
    01:00 +21°C° 0 mm 3 m/S 759 mmHg 46%
    02:00 +20°C° 0 mm 3 m/S 759 mmHg 48%
    03:00 +20°C° 0 mm 3 m/S 759 mmHg 50%
    04:00 +19°C° 0 mm 3 m/S 759 mmHg 53%
    05:00 +19°C° 0 mm 3 m/S 759 mmHg 55%
    06:00 +21°C° 0 mm 3 m/S 759 mmHg 51%
    07:00 +23°C° 0 mm 4 m/S 759 mmHg 48%
    08:00 +26°C° 0 mm 4 m/S 760 mmHg 44%
    09:00 +27°C° 0 mm 4 m/S 760 mmHg 40%
    10:00 +29°C° 0 mm 5 m/S 760 mmHg 36%
    11:00 +30°C° 0 mm 5 m/S 759 mmHg 32%
    12:00 +32°C° 0 mm 5 m/S 759 mmHg 31%
    13:00 +32°C° 0 mm 5 m/S 759 mmHg 29%
    14:00 +33°C° 0 mm 4 m/S 758 mmHg 28%
    15:00 +32°C° 0 mm 5 m/S 758 mmHg 29%
    16:00 +32°C° 0 mm 5 m/S 758 mmHg 30%
    17:00 +30°C° 0 mm 6 m/S 758 mmHg 31%
    18:00 +29°C° 0 mm 5 m/S 758 mmHg 35%
    19:00 +27°C° 0 mm 5 m/S 758 mmHg 39%
    20:00 +25°C° 0 mm 4 m/S 758 mmHg 43%
    21:00 +23°C° 0 mm 4 m/S 759 mmHg 43%
    22:00 +22°C° 0 mm 4 m/S 759 mmHg 43%
    23:00 +21°C° 0 mm 4 m/S 759 mmHg 43%
    Mehr zeigen